Location: Shannon
(40.5500°S, 175.4167°E)
Time: 07:50:30
(UTC+00:00)

ACS3 Solar Sail - Pass Details

Date: 17 November 2025
Orbit: 887 x 1000 km, 97.3° (Epoch: 14 December)

Event Time Altitude Azimuth Distance (km) Brightness Sun altitude
Exits shadow 13:55:10 - 43° (NE) 3,401 4.5 -24.9°
Reaches altitude 10° 13:56:58 10° 49° (NE) 2,782 4.1 -24.7°
Maximum altitude 14:02:34 35° 112° (ESE) 1,585 3.3 -24.2°
Drops below altitude 10° 14:08:14 10° 174° (S) 2,818 5.1 -23.6°
Sets 14:10:57 0° 182° (S) 3,769 5.7 -23.4°
